Time,TemperatureF,DewpointF,PressureIn,WindDirection,WindDirectionDegrees,WindSpeedMPH,WindSpeedGustMPH,Humidity,HourlyPrecipIn,Conditions,Clouds,dailyrainin,SoftwareType,DateUTC
2013-05-01 00:03:00,50.0,37.0,-100.00,North,355,2.0,3.0,60,0.00,,,-99.99,,2013-05-01 04:03:00,
2013-05-01 00:12:00,49.0,39.0,-100.00,ESE,115,1.0,1.0,66,0.00,,,-99.99,,2013-05-01 04:12:00,
2013-05-01 00:22:00,49.0,37.0,-100.00,SW,225,1.0,2.0,62,0.00,,,-99.99,,2013-05-01 04:22:00,
2013-05-01 00:32:00,49.0,36.0,-100.00,SW,225,1.0,1.0,62,0.00,,,-99.99,,2013-05-01 04:32:00,
2013-05-01 00:43:00,48.0,35.0,-100.00,SW,225,1.0,2.0,60,0.00,,,-99.99,,2013-05-01 04:43:00,
2013-05-01 00:52:00,47.0,36.0,-100.00,West,265,0.0,1.0,64,0.00,,,-99.99,,2013-05-01 04:52:00,
2013-05-01 01:02:00,47.0,36.0,-100.00,SE,140,1.0,2.0,64,0.00,,,-99.99,,2013-05-01 05:02:00,
2013-05-01 01:11:00,46.0,35.0,-100.00,West,265,0.0,2.0,65,0.00,,,-99.99,,2013-05-01 05:11:00,
2013-05-01 01:21:00,46.0,35.0,-100.00,SW,235,1.0,1.0,65,0.00,,,-99.99,,2013-05-01 05:21:00,
2013-05-01 01:32:00,45.0,35.0,-100.00,West,265,1.0,1.0,68,0.00,,,-99.99,,2013-05-01 05:32:00,
2013-05-01 01:42:00,45.0,35.0,-100.00,West,270,1.0,1.0,69,0.00,,,-99.99,,2013-05-01 05:42:00,
2013-05-01 01:52:00,45.0,36.0,-100.00,SSE,165,0.0,1.0,69,0.00,,,-99.99,,2013-05-01 05:52:00,
2013-05-01 02:02:00,45.0,36.0,-100.00,West,280,0.0,2.0,71,0.00,,,-99.99,,2013-05-01 06:02:00,
2013-05-01 02:12:00,44.0,36.0,-100.00,West,270,1.0,1.0,74,0.00,,,-99.99,,2013-05-01 06:12:00,
2013-05-01 02:22:00,44.0,36.0,-100.00,SW,235,1.0,1.0,75,0.00,,,-99.99,,2013-05-01 06:22:00,
2013-05-01 02:32:00,44.0,36.0,-100.00,ESE,115,0.0,1.0,75,0.00,,,-99.99,,2013-05-01 06:32:00,
2013-05-01 02:42:00,43.0,37.0,-100.00,SW,220,1.0,1.0,78,0.00,,,-99.99,,2013-05-01 06:42:00,
2013-05-01 02:51:00,42.0,36.0,-100.00,NW,315,1.0,2.0,79,0.00,,,-99.99,,2013-05-01 06:51:00,
2013-05-01 03:01:00,43.0,37.0,-100.00,SW,235,1.0,2.0,79,0.00,,,-99.99,,2013-05-01 07:01:00,
2013-05-01 03:11:00,42.0,37.0,-100.00,West,270,1.0,1.0,80,0.00,,,-99.99,,2013-05-01 07:11:00,
2013-05-01 03:21:00,42.0,37.0,-100.00,SW,235,1.0,2.0,80,0.00,,,-99.99,,2013-05-01 07:21:00,
2013-05-01 03:32:00,42.0,37.0,-100.00,SW,225,1.0,1.0,81,0.00,,,-99.99,,2013-05-01 07:32:00,
2013-05-01 03:42:00,42.0,36.0,-100.00,SW,225,0.0,2.0,81,0.00,,,-99.99,,2013-05-01 07:42:00,
2013-05-01 03:52:00,41.0,36.0,-100.00,WSW,255,1.0,1.0,83,0.00,,,-99.99,,2013-05-01 07:52:00,
2013-05-01 04:02:00,41.0,36.0,-100.00,WSW,245,1.0,2.0,83,0.00,,,-99.99,,2013-05-01 08:02:00,
2013-05-01 04:11:00,41.0,36.0,-100.00,SW,225,1.0,2.0,84,0.00,,,-99.99,,2013-05-01 08:11:00,
2013-05-01 04:22:00,41.0,37.0,-100.00,SW,225,1.0,2.0,85,0.00,,,-99.99,,2013-05-01 08:22:00,
2013-05-01 04:32:00,41.0,37.0,-100.00,South,175,1.0,2.0,85,0.00,,,-99.99,,2013-05-01 08:32:00,
2013-05-01 04:42:00,40.0,37.0,-100.00,SSE,160,1.0,1.0,86,0.00,,,-99.99,,2013-05-01 08:42:00,
2013-05-01 04:53:00,40.0,36.0,-100.00,SW,220,1.0,1.0,87,0.00,,,-99.99,,2013-05-01 08:53:00,
2013-05-01 05:01:00,40.0,36.0,-100.00,SW,215,0.0,1.0,88,0.00,,,-99.99,,2013-05-01 09:01:00,
2013-05-01 05:12:00,40.0,36.0,-100.00,SSW,210,1.0,1.0,88,0.00,,,-99.99,,2013-05-01 09:12:00,
2013-05-01 05:21:00,39.0,36.0,-100.00,West,275,1.0,1.0,88,0.00,,,-99.99,,2013-05-01 09:21:00,
2013-05-01 05:33:00,39.0,36.0,-100.00,SW,225,1.0,1.0,88,0.00,,,-99.99,,2013-05-01 09:33:00,
2013-05-01 05:42:00,39.0,36.0,-100.00,SW,230,1.0,2.0,89,0.00,,,-99.99,,2013-05-01 09:42:00,
2013-05-01 05:53:00,39.0,36.0,-100.00,SW,225,1.0,1.0,89,0.00,,,-99.99,,2013-05-01 09:53:00,
2013-05-01 06:03:00,39.0,36.0,-100.00,SSE,160,1.0,2.0,89,0.00,,,-99.99,,2013-05-01 10:03:00,
2013-05-01 06:12:00,38.0,36.0,-100.00,West,270,0.0,1.0,89,0.00,,,-99.99,,2013-05-01 10:12:00,
2013-05-01 06:22:00,39.0,36.0,-100.00,SW,215,1.0,1.0,89,0.00,,,-99.99,,2013-05-01 10:22:00,
2013-05-01 06:33:00,40.0,37.0,-100.00,West,260,0.0,1.0,88,0.00,,,-99.99,,2013-05-01 10:33:00,
2013-05-01 06:42:00,41.0,37.0,-100.00,SSW,205,0.0,1.0,86,0.00,,,-99.99,,2013-05-01 10:42:00,
2013-05-01 06:52:00,42.0,37.0,-100.00,NNW,340,0.0,1.0,82,0.00,,,-99.99,,2013-05-01 10:52:00,
2013-05-01 07:02:00,44.0,37.0,-100.00,NNE,25,0.0,1.0,78,0.00,,,-99.99,,2013-05-01 11:02:00,
2013-05-01 07:11:00,45.0,37.0,-100.00,ENE,70,0.0,1.0,73,0.00,,,-99.99,,2013-05-01 11:11:00,
2013-05-01 07:22:00,44.0,37.0,-100.00,North,10,1.0,2.0,76,0.00,,,-99.99,,2013-05-01 11:22:00,
2013-05-01 07:32:00,44.0,37.0,-100.00,North,355,1.0,2.0,76,0.00,,,-99.99,,2013-05-01 11:32:00,
2013-05-01 07:42:00,45.0,37.0,-100.00,North,355,1.0,2.0,72,0.00,,,-99.99,,2013-05-01 11:42:00,
2013-05-01 07:51:00,45.0,36.0,-100.00,North,355,1.0,2.0,69,0.00,,,-99.99,,2013-05-01 11:51:00,
2013-05-01 08:01:00,46.0,36.0,-100.00,North,355,1.0,2.0,67,0.00,,,-99.99,,2013-05-01 12:01:00,
2013-05-01 08:11:00,48.0,36.0,-100.00,NNW,335,1.0,1.0,61,0.00,,,-99.99,,2013-05-01 12:11:00,
2013-05-01 08:21:00,49.0,35.0,-100.00,NNE,15,1.0,2.0,58,0.00,,,-99.99,,2013-05-01 12:21:00,
2013-05-01 08:32:00,49.0,36.0,-100.00,NNW,340,1.0,2.0,60,0.00,,,-99.99,,2013-05-01 12:32:00,
2013-05-01 08:41:00,52.0,35.0,-100.00,East,85,1.0,2.0,52,0.00,,,-99.99,,2013-05-01 12:41:00,
2013-05-01 08:52:00,54.0,35.0,-100.00,NE,45,1.0,2.0,47,0.00,,,-99.99,,2013-05-01 12:52:00,
2013-05-01 09:01:00,55.0,34.0,-100.00,NE,40,1.0,2.0,44,0.00,,,-99.99,,2013-05-01 13:01:00,
2013-05-01 09:11:00,55.0,34.0,-100.00,North,0,1.0,2.0,44,0.00,,,-99.99,,2013-05-01 13:11:00,
2013-05-01 09:21:00,55.0,33.0,-100.00,North,355,2.0,3.0,44,0.00,,,-99.99,,2013-05-01 13:21:00,
2013-05-01 09:32:00,56.0,32.0,-100.00,North,0,1.0,3.0,39,0.00,,,-99.99,,2013-05-01 13:32:00,
2013-05-01 09:42:00,58.0,29.0,-100.00,North,350,1.0,3.0,33,0.00,,,-99.99,,2013-05-01 13:42:00,
2013-05-01 09:52:00,59.0,30.0,-100.00,NNE,20,1.0,2.0,33,0.00,,,-99.99,,2013-05-01 13:52:00,
2013-05-01 10:02:00,59.0,32.0,-100.00,North,0,2.0,3.0,34,0.00,,,-99.99,,2013-05-01 14:02:00,
2013-05-01 10:11:00,61.0,32.0,-100.00,North,5,1.0,3.0,33,0.00,,,-99.99,,2013-05-01 14:11:00,
2013-05-01 10:22:00,62.0,31.0,-100.00,North,5,2.0,3.0,31,0.00,,,-99.99,,2013-05-01 14:22:00,
2013-05-01 10:32:00,62.0,31.0,-100.00,NE,40,2.0,4.0,30,0.00,,,-99.99,,2013-05-01 14:32:00,
2013-05-01 10:42:00,63.0,32.0,-100.00,ESE,110,1.0,4.0,30,0.00,,,-99.99,,2013-05-01 14:42:00,
2013-05-01 10:51:00,64.0,31.0,-100.00,North,10,2.0,4.0,28,0.00,,,-99.99,,2013-05-01 14:51:00,
2013-05-01 11:01:00,65.0,32.0,-100.00,North,10,3.0,4.0,29,0.00,,,-99.99,,2013-05-01 15:01:00,
2013-05-01 11:11:00,65.0,32.0,-100.00,North,5,1.0,4.0,28,0.00,,,-99.99,,2013-05-01 15:11:00,
2013-05-01 11:21:00,66.0,31.0,-100.00,NNE,25,2.0,4.0,26,0.00,,,-99.99,,2013-05-01 15:21:00,
2013-05-01 11:33:00,67.0,33.0,-100.00,East,90,2.0,6.0,27,0.00,,,-99.99,,2013-05-01 15:33:00,
2013-05-01 11:43:00,68.0,32.0,-100.00,NNE,15,2.0,4.0,25,0.00,,,-99.99,,2013-05-01 15:43:00,
2013-05-01 12:03:00,68.0,31.0,-100.00,North,0,2.0,4.0,24,0.00,,,-99.99,,2013-05-01 16:03:00,
2013-05-01 12:12:00,69.0,32.0,-100.00,North,355,2.0,4.0,26,0.00,,,-99.99,,2013-05-01 16:12:00,
2013-05-01 12:22:00,69.0,32.0,-100.00,NNE,20,2.0,4.0,25,0.00,,,-99.99,,2013-05-01 16:22:00,
2013-05-01 12:32:00,70.0,32.0,-100.00,North,-999,-999.0,-999.0,24,-99.99,,,-99.99,,2013-05-01 16:32:00,
2013-05-01 12:42:00,71.0,32.0,-100.00,NNW,340,2.0,4.0,23,0.00,,,-99.99,,2013-05-01 16:42:00,
2013-05-01 12:53:00,70.0,31.0,-100.00,North,-999,-999.0,-999.0,24,0.00,,,-99.99,,2013-05-01 16:53:00,
2013-05-01 13:02:00,71.0,32.0,-100.00,North,0,3.0,5.0,23,0.00,,,-99.99,,2013-05-01 17:02:00,
2013-05-01 13:12:00,72.0,31.0,-100.00,North,350,3.0,4.0,21,0.00,,,-99.99,,2013-05-01 17:12:00,
2013-05-01 13:22:00,72.0,35.0,-100.00,NNE,20,1.0,4.0,25,0.00,,,-99.99,,2013-05-01 17:22:00,
2013-05-01 13:32:00,72.0,31.0,-100.00,NNW,335,2.0,6.0,22,0.00,,,-99.99,,2013-05-01 17:32:00,
2013-05-01 13:42:00,72.0,31.0,-100.00,ESE,110,1.0,4.0,21,0.00,,,-99.99,,2013-05-01 17:42:00,
2013-05-01 13:52:00,73.0,33.0,-100.00,North,5,2.0,5.0,22,0.00,,,-99.99,,2013-05-01 17:52:00,
2013-05-01 14:01:00,73.0,33.0,-100.00,North,10,2.0,5.0,22,0.00,,,-99.99,,2013-05-01 18:01:00,
2013-05-01 14:11:00,74.0,31.0,-100.00,NNE,15,2.0,4.0,20,0.00,,,-99.99,,2013-05-01 18:11:00,
2013-05-01 14:22:00,73.0,34.0,-100.00,NNE,20,2.0,6.0,23,0.00,,,-99.99,,2013-05-01 18:22:00,
2013-05-01 14:32:00,74.0,32.0,-100.00,North,350,2.0,4.0,21,0.00,,,-99.99,,2013-05-01 18:32:00,
2013-05-01 14:42:00,74.0,30.0,-100.00,NE,50,2.0,6.0,19,0.00,,,-99.99,,2013-05-01 18:42:00,
2013-05-01 14:52:00,73.0,30.0,-100.00,ESE,120,2.0,7.0,19,0.00,,,-99.99,,2013-05-01 18:52:00,
2013-05-01 15:02:00,74.0,31.0,-100.00,NNE,30,1.0,5.0,20,0.00,,,-99.99,,2013-05-01 19:02:00,
2013-05-01 15:11:00,74.0,31.0,-100.00,ESE,105,4.0,7.0,20,0.00,,,-99.99,,2013-05-01 19:11:00,
2013-05-01 15:22:00,75.0,31.0,-100.00,SSW,210,4.0,6.0,19,0.00,,,-99.99,,2013-05-01 19:22:00,
2013-05-01 15:32:00,74.0,30.0,-100.00,ESE,110,2.0,4.0,19,0.00,,,-99.99,,2013-05-01 19:32:00,
2013-05-01 15:43:00,75.0,31.0,-100.00,NNE,20,1.0,4.0,19,0.00,,,-99.99,,2013-05-01 19:43:00,
2013-05-01 15:52:00,75.0,31.0,-100.00,NNE,15,1.0,4.0,19,0.00,,,-99.99,,2013-05-01 19:52:00,
2013-05-01 16:02:00,75.0,32.0,-100.00,ESE,105,3.0,5.0,20,0.00,,,-99.99,,2013-05-01 20:02:00,
2013-05-01 16:11:00,75.0,33.0,-100.00,South,175,1.0,4.0,21,0.00,,,-99.99,,2013-05-01 20:11:00,
2013-05-01 16:21:00,75.0,32.0,-100.00,NNE,15,2.0,4.0,20,0.00,,,-99.99,,2013-05-01 20:21:00,
2013-05-01 16:32:00,75.0,35.0,-100.00,East,90,1.0,4.0,22,0.00,,,-99.99,,2013-05-01 20:32:00,
2013-05-01 16:42:00,76.0,36.0,-100.00,SSE,150,0.0,3.0,23,0.00,,,-99.99,,2013-05-01 20:42:00,
2013-05-01 16:52:00,77.0,36.0,-100.00,East,85,1.0,3.0,23,0.00,,,-99.99,,2013-05-01 20:52:00,
2013-05-01 17:01:00,76.0,32.0,-100.00,East,85,1.0,4.0,20,0.00,,,-99.99,,2013-05-01 21:01:00,
2013-05-01 17:11:00,76.0,35.0,-100.00,East,85,1.0,4.0,22,0.00,,,-99.99,,2013-05-01 21:11:00,
2013-05-01 17:22:00,76.0,30.0,-100.00,NNE,15,2.0,4.0,18,0.00,,,-99.99,,2013-05-01 21:22:00,
2013-05-01 17:32:00,75.0,31.0,-100.00,SE,125,3.0,4.0,19,0.00,,,-99.99,,2013-05-01 21:32:00,
2013-05-01 17:43:00,77.0,31.0,-100.00,SW,225,1.0,7.0,18,0.00,,,-99.99,,2013-05-01 21:43:00,
2013-05-01 17:53:00,77.0,32.0,-100.00,NW,305,2.0,6.0,19,0.00,,,-99.99,,2013-05-01 21:53:00,
2013-05-01 18:03:00,76.0,31.0,-100.00,SW,230,2.0,6.0,19,0.00,,,-99.99,,2013-05-01 22:03:00,
2013-05-01 18:12:00,77.0,29.0,-100.00,South,190,2.0,6.0,17,0.00,,,-99.99,,2013-05-01 22:12:00,
2013-05-01 18:23:00,77.0,31.0,-100.00,WSW,245,1.0,4.0,18,0.00,,,-99.99,,2013-05-01 22:23:00,
2013-05-01 18:33:00,76.0,30.0,-100.00,WSW,240,4.0,7.0,18,0.00,,,-99.99,,2013-05-01 22:33:00,
2013-05-01 18:42:00,76.0,30.0,-100.00,West,270,1.0,6.0,18,0.00,,,-99.99,,2013-05-01 22:42:00,
2013-05-01 18:52:00,75.0,30.0,-100.00,WSW,245,2.0,4.0,18,0.00,,,-99.99,,2013-05-01 22:52:00,
2013-05-01 19:02:00,74.0,30.0,-100.00,West,265,1.0,4.0,20,0.00,,,-99.99,,2013-05-01 23:02:00,
2013-05-01 19:12:00,73.0,31.0,-100.00,SW,235,1.0,3.0,21,0.00,,,-99.99,,2013-05-01 23:12:00,
2013-05-01 19:21:00,72.0,31.0,-100.00,WSW,245,1.0,4.0,21,0.00,,,-99.99,,2013-05-01 23:21:00,
2013-05-01 19:32:00,72.0,36.0,-100.00,West,265,1.0,4.0,27,0.00,,,-99.99,,2013-05-01 23:32:00,
2013-05-01 19:42:00,70.0,35.0,-100.00,SW,230,1.0,2.0,27,0.00,,,-99.99,,2013-05-01 23:42:00,
2013-05-01 19:52:00,69.0,35.0,-100.00,SW,225,1.0,2.0,28,0.00,,,-99.99,,2013-05-01 23:52:00,
2013-05-01 20:01:00,68.0,33.0,-100.00,SW,225,2.0,5.0,26,0.00,,,-99.99,,2013-05-02 00:01:00,
2013-05-01 20:11:00,68.0,33.0,-100.00,SW,235,1.0,4.0,27,0.00,,,-99.99,,2013-05-02 00:11:00,
2013-05-01 20:21:00,66.0,34.0,-100.00,SW,230,1.0,2.0,29,0.00,,,-99.99,,2013-05-02 00:21:00,
2013-05-01 20:32:00,65.0,34.0,-100.00,SW,235,1.0,2.0,31,0.00,,,-99.99,,2013-05-02 00:32:00,
2013-05-01 20:42:00,65.0,33.0,-100.00,West,270,0.0,2.0,30,0.00,,,-99.99,,2013-05-02 00:42:00,
2013-05-01 20:52:00,63.0,35.0,-100.00,SW,230,1.0,4.0,34,0.00,,,-99.99,,2013-05-02 00:52:00,
2013-05-01 21:01:00,63.0,30.0,-100.00,SSW,210,1.0,6.0,28,0.00,,,-99.99,,2013-05-02 01:01:00,
2013-05-01 21:11:00,63.0,32.0,-100.00,SE,145,1.0,3.0,30,0.00,,,-99.99,,2013-05-02 01:11:00,
2013-05-01 21:21:00,62.0,33.0,-100.00,SW,235,1.0,1.0,33,0.00,,,-99.99,,2013-05-02 01:21:00,
2013-05-01 21:32:00,60.0,34.0,-100.00,SW,235,1.0,1.0,37,0.00,,,-99.99,,2013-05-02 01:32:00,
2013-05-01 21:42:00,59.0,34.0,-100.00,WSW,240,1.0,1.0,38,0.00,,,-99.99,,2013-05-02 01:42:00,
2013-05-01 21:52:00,58.0,31.0,-100.00,SW,230,1.0,1.0,35,0.00,,,-99.99,,2013-05-02 01:52:00,
2013-05-01 22:02:00,58.0,31.0,-100.00,SW,225,0.0,2.0,35,0.00,,,-99.99,,2013-05-02 02:02:00,
2013-05-01 22:12:00,58.0,32.0,-100.00,West,260,1.0,1.0,36,0.00,,,-99.99,,2013-05-02 02:12:00,
2013-05-01 22:21:00,58.0,33.0,-100.00,SW,225,1.0,1.0,38,0.00,,,-99.99,,2013-05-02 02:21:00,
2013-05-01 22:32:00,57.0,33.0,-100.00,West,265,1.0,2.0,40,0.00,,,-99.99,,2013-05-02 02:32:00,
2013-05-01 22:42:00,57.0,33.0,-100.00,West,265,1.0,2.0,40,0.00,,,-99.99,,2013-05-02 02:42:00,
2013-05-01 22:51:00,57.0,33.0,-100.00,West,265,1.0,2.0,40,0.00,,,-99.99,,2013-05-02 02:51:00,
2013-05-01 23:01:00,55.0,35.0,-100.00,SSW,200,0.0,1.0,44,0.00,,,-99.99,,2013-05-02 03:01:00,
2013-05-01 23:11:00,55.0,34.0,-100.00,SW,235,1.0,1.0,45,0.00,,,-99.99,,2013-05-02 03:11:00,
2013-05-01 23:22:00,54.0,34.0,-100.00,SW,230,1.0,2.0,45,0.00,,,-99.99,,2013-05-02 03:22:00,
2013-05-01 23:33:00,53.0,35.0,-100.00,SW,225,1.0,2.0,48,0.00,,,-99.99,,2013-05-02 03:33:00,
2013-05-01 23:43:00,53.0,34.0,-100.00,South,190,1.0,2.0,47,0.00,,,-99.99,,2013-05-02 03:43:00,
2013-05-01 23:53:00,53.0,35.0,-100.00,WSW,250,1.0,1.0,51,0.00,,,-99.99,,2013-05-02 03:53:00,